User: anonymous   Login
Location: Unspecified
(0.0000°N, 0.0000°E)
Time: 06:06:13
(UTC+01:00)
Language:

N. Korean satellite - Orbit

View from above orbital plane
View from above orbital plane
View from above satellite
View from above satellite

Ground track
Ground track

The orbit data is extracted from the following two-line orbital elements,

1 39026U 12072A   22028.43982261  .00007785  00000-0  24746-3 0  9994
2 39026  97.2603  21.3145 0031809 303.3100  56.5097 15.32396489507459
Epoch (UTC): 28 January 2022 10:33:20
Eccentricity: 0.0031809
inclination: 97.2603°
perigee height: 447 km
apogee height: 490 km
right ascension of ascending node: 21.3145°
argument of perigee: 303.3100°
revolutions per day: 15.32396489
mean anomaly at epoch: 56.5097°
orbit number at epoch: 50745

The dashed part of the orbit path shows where the satellite is in the earth's shadow,  

DLR